[[{"header":{"parameterUnit":"m.s-1","parameterCategory":1,"la1":30.2992,"la2":30.254,"lo1":-89.0895,"lo2":-89.0443,"dy":0.0025,"dx":0.0025,"nx":19,"ny":19,"refTime":"2026-05-18T03:00:00:Z","depth":0,"parameterNumber":2,"parameterNumberName":"U-component_of_WINDS"},"data":[0,0,0,-2.5822,-2.5826,-2.5977,-2.5977,-2.6186,-2.6188,0,0,0,0,0,0,0,0,0,0,0,-2.578,-2.5781,-2.5822,-2.5826,-2.5977,-2.5977,-2.6185,-2.6188,0,0,0,0,0,0,0,0,0,0,0,-2.5779,-2.5781,-2.5783,-2.5826,-2.5977,-2.5977,-2.6185,-2.6067,0,0,0,0,0,0,0,0,0,0,-2.5919,-2.588,-2.5781,-2.5783,-2.5827,-2.5976,-2.5978,-2.6061,-2.6075,-2.6122,0,-2.6158,0,-2.6176,-2.6202,-2.6203,0,0,0,-2.5826,-2.5869,-2.5907,-2.5783,-2.5829,-2.5976,-2.5909,-2.6069,-2.6084,-2.6139,-2.6161,-2.6169,-2.6179,-2.6203,-2.6204,-2.6463,-2.6464,0,0,-2.5817,-2.581,-2.5896,-2.5917,-2.5887,-2.5904,-2.5913,-2.6077,-2.6103,-2.6162,-2.6173,-2.6183,-2.6205,-2.6206,-2.6461,-2.6463,0,0,0,-2.5794,-2.5804,-2.5838,-2.5908,-2.5934,-2.5908,-2.5919,-2.6096,-2.6107,-2.6176,-2.6185,-2.6206,-2.6209,-2.646,-2.6462,-2.6511,0,0,0,-2.5789,-2.579,-2.5834,-2.5831,-2.5931,-2.6015,-2.5934,-2.6096,-2.6115,-2.6184,-2.6206,-2.6211,-2.6459,-2.6461,-2.6506,-2.6535,0,0,0,-2.577,-2.5788,-2.581,-2.5831,-2.5894,-2.6013,-2.6034,-2.61,-2.6121,-2.6203,-2.6211,-2.6458,-2.6461,-2.6503,-2.6529,-2.66,0,0,0,-2.5749,-2.5854,-2.581,-2.5933,-2.5893,-2.6041,-2.6033,-2.6145,-2.6221,-2.6207,-2.6459,-2.6462,-2.6501,-2.6525,-2.6595,-2.6655,-2.668,0,0,-2.5877,-2.5869,-2.5942,-2.5908,-2.6059,-2.6018,-2.6181,-2.6261,-2.628,-2.6403,-2.6409,-2.6508,-2.6529,-2.6599,-2.6824,-2.6843,0,0,0,-2.598,-2.6032,-2.6075,-2.6144,-2.6205,-2.6261,-2.6316,-2.6347,-2.6451,-2.6339,-2.6554,-2.6567,-2.6608,-2.6638,-2.6654,-2.669,-2.6475,-2.6475,-2.6475,-2.615,-2.6165,-2.6287,-2.632,-2.6389,-2.6445,-2.6504,-2.6556,-2.6554,-2.6605,-2.664,-2.6774,-2.6808,-2.682,-2.6858,-2.6675,-2.6675,-2.6676,-2.6676,-2.6339,-2.6414,-2.6408,-2.6522,-2.654,-2.664,-2.6702,-2.6697,-2.6796,-2.6748,-2.6786,-2.673,-2.6841,-2.6875,-2.668,-2.6679,-2.6678,-2.6678,-2.6678,-2.645,-2.6488,-2.6521,-2.6624,-2.6705,-2.6739,-2.6833,-2.6847,-2.6863,-2.69,-2.694,-2.6939,-2.6939,-2.6918,-2.6919,-2.6919,-2.692,-2.692,-2.692,-2.655,-2.6586,-2.666,-2.6735,-2.6782,-2.6848,-2.691,-2.696,-2.7019,-2.7023,-2.7024,-2.7017,-2.6848,-2.6804,-2.6928,-2.6926,-2.6925,-2.6925,-2.6924,-2.6731,-2.6693,-2.6807,-2.6854,-2.6946,-2.7026,-2.7044,-2.7145,-2.7189,-2.7237,-2.7224,-2.7097,-2.7091,-2.7078,-2.7042,-2.7219,-2.7219,-2.7219,-2.7219,-2.6823,-2.6821,-2.6941,-2.7017,-2.7094,-2.7122,-2.7258,-2.731,-2.7359,-2.7388,-2.7366,-2.732,-2.7307,-2.7309,-2.7291,-2.7257,-2.7486,-2.7486,-2.7486,-2.6935,-2.6942,-2.7049,-2.7091,-2.7165,-2.723,-2.7358,-2.7451,-2.75,-2.7497,-2.7412,-2.7401,-2.7327,-2.7303,-2.7294,-2.7266,-2.7204,0,0]},{"header":{"parameterUnit":"m.s-1","parameterCategory":1,"la1":30.2992,"la2":30.254,"lo1":-89.0895,"lo2":-89.0443,"dy":0.0025,"dx":0.0025,"nx":19,"ny":19,"refTime":"2026-05-18T03:00:00:Z","depth":0,"parameterNumber":3,"parameterNumberName":"V-component_of_WINDS"},"data":[0,0,0,2.546,2.5461,2.548,2.548,2.5488,2.5488,0,0,0,0,0,0,0,0,0,0,0,2.5446,2.5446,2.546,2.5461,2.548,2.548,2.5488,2.5488,0,0,0,0,0,0,0,0,0,0,0,2.5446,2.5446,2.5446,2.5461,2.548,2.548,2.5488,2.5479,0,0,0,0,0,0,0,0,0,0,2.5463,2.5442,2.5446,2.5446,2.5461,2.548,2.548,2.5479,2.548,2.5473,0,2.5466,0,2.5477,2.5488,2.5488,0,0,0,2.5466,2.5441,2.5455,2.5446,2.5461,2.548,2.5473,2.548,2.548,2.5474,2.5466,2.5467,2.5478,2.5488,2.5488,2.5434,2.5434,0,0,2.5465,2.5444,2.5454,2.5455,2.5453,2.5472,2.5473,2.548,2.547,2.5466,2.5468,2.5478,2.5488,2.5488,2.5435,2.5434,0,0,0,2.5458,2.5443,2.5457,2.5454,2.5459,2.5473,2.5474,2.547,2.5476,2.5468,2.5478,2.5488,2.5488,2.5435,2.5435,2.5389,0,0,0,2.5458,2.5439,2.5456,2.5443,2.5458,2.5465,2.5463,2.5476,2.5477,2.5478,2.5488,2.5488,2.5436,2.5435,2.5392,2.537,0,0,0,2.5448,2.5438,2.5439,2.5442,2.545,2.5465,2.5472,2.5476,2.5483,2.5488,2.5488,2.5436,2.5435,2.5394,2.5374,2.535,0,0,0,2.543,2.5396,2.5437,2.5404,2.545,2.5438,2.5472,2.5464,2.5463,2.5488,2.5436,2.5435,2.5395,2.5376,2.5352,2.5326,2.5313,0,0,2.5375,2.5389,2.5371,2.5408,2.5384,2.5437,2.5405,2.5423,2.5441,2.5435,2.5434,2.5391,2.5374,2.5351,2.5251,2.524,0,0,0,2.5346,2.5333,2.5331,2.5331,2.5345,2.5356,2.5381,2.5388,2.5384,2.5435,2.5377,2.5368,2.5355,2.5343,2.5334,2.5324,2.5429,2.5429,2.5429,2.5237,2.5265,2.5237,2.5268,2.5267,2.5295,2.5296,2.531,2.5337,2.5323,2.5321,2.5257,2.5242,2.5236,2.5225,2.531,2.531,2.531,2.5309,2.5159,2.5144,2.5184,2.5171,2.52,2.5189,2.5215,2.5235,2.5228,2.526,2.525,2.5282,2.5224,2.5216,2.5306,2.5307,2.5307,2.5308,2.5308,2.5089,2.5087,2.5098,2.5102,2.5101,2.5134,2.5126,2.5153,2.5178,2.5168,2.5169,2.5169,2.5173,2.5167,2.5167,2.5167,2.5166,2.5166,2.5166,2.5012,2.5026,2.5018,2.5032,2.5037,2.5045,2.5075,2.5079,2.509,2.511,2.511,2.5138,2.5214,2.5231,2.5163,2.5163,2.5164,2.5164,2.5164,2.492,2.4946,2.4932,2.4937,2.4957,2.4954,2.4991,2.4997,2.5005,2.5,2.5031,2.5083,2.5098,2.5105,2.5119,2.5026,2.5026,2.5026,2.5026,2.486,2.4872,2.4865,2.487,2.4879,2.4911,2.4893,2.4916,2.4944,2.495,2.4968,2.499,2.4997,2.5007,2.5017,2.5031,2.4917,2.4917,2.4917,2.4805,2.4819,2.4799,2.4829,2.4848,2.4862,2.4847,2.485,2.4887,2.4913,2.4955,2.496,2.4997,2.5007,2.5031,2.5045,2.5072,0,0]}]]